Location: Arcizac
(43.0933°N, 0.0112°E)
Time: 15:08:08
(UTC+00:00)

Cosmos 1741 Rocket - Pass Details

Date: 14 December 2019
Orbit: 762 x 782 km, 74.0° (Epoch: 19 January)

Event Time Altitude Azimuth Distance (km) Brightness Sun altitude
Rises 18:27:44 0° 183° (S) 3,230 7.4 -21.5°
Reaches altitude 10° 18:30:10 10° 178° (S) 2,305 6.6 -21.9°
Enters shadow 18:34:50 48° 118° (ESE) 993 4.2 -22.7°
